Location: Dodge City Community College Clyde Tombaugh Astronomy Center
(37.7756°N, 100.0412°W)
Time: 04:19:41
(UTC+00:00)

Cosmos 2228 Rocket - Pass Details

Date: 03 July 2022
Orbit: 618 x 651 km, 82.5° (Epoch: 07 August)

Event Time Altitude Azimuth Distance (km) Brightness Sun altitude
Rises 10:27:56 0° 350° (N) 2,915 6.9 -9.8°
Reaches altitude 10° 10:30:10 10° 349° (NNW) 2,008 6.1 -9.4°
Maximum altitude 10:34:36 73° 265° (W) 663 3.1 -8.7°
Drops below altitude 10° 10:39:03 10° 181° (S) 2,014 5.3 -8.0°
Sets 10:41:18 0° 179° (S) 2,923 6.2 -7.7°
